Location: Lake Crest
(37.6062°N, 88.9176°W)
Time: 23:10:59
(UTC+00:00)

Cosmos 1428 Rocket - Pass Details

Date: 15 December 2019
Orbit: 948 x 988 km, 82.9° (Epoch: 20 January)

Event Time Altitude Azimuth Distance (km) Brightness Sun altitude
Exits shadow 11:16:31 - 347° (NNW) 3,223 7.0 -20.4°
Reaches altitude 10° 11:17:47 10° 345° (NNW) 2,753 6.6 -20.2°
Maximum altitude 11:23:58 60° 268° (W) 1,122 4.5 -19.0°
Drops below altitude 10° 11:30:07 10° 190° (S) 2,728 6.9 -17.8°
Sets 11:32:38 0° 186° (S) 3,668 7.6 -17.4°
